Rochester, NH

10:51 PM EST on December 12, 2017 (GMT -0500)
Skyhaven

Weather History for KDAW - February, 2013

Change the Weather History Date:

Monday, February 25, 2013

  Actual Average (KPSM) Record (KPSM)
Temperature  
Mean Temperature 32 °F -  
Max Temperature 37 °F 36 °F 60 °F (2016)
Min Temperature 28 °F 20 °F -2 °F (1993)
Degree Days  
Heating Degree Days 32    
Moisture  
Dew Point 28 °F    
Average Humidity 86    
Maximum Humidity 96    
Minimum Humidity 67    
Precipitation  
Precipitation 0.01 in - - ()
Sea Level Pressure  
Sea Level Pressure 30.09 in    
Wind  
Wind Speed 3 mph (NNW)    
Max Wind Speed 7 mph    
Max Gust Speed -    
Visibility 8 miles    
Events Fog , Snow    
Averages and records for this station are not official NWS values.
T = Trace of Precipitation, MM = Missing Value Source: NWS Daily Summary

Daily Weather History Graph

Daily Weather History Graph

Search for Another Location

Airport or City:

Trip Planner

Search our weather history database for the weather conditions in past years. The results will help you decide how hot, cold, wet, or windy it might be!

Date:

Astronomy

Feb. 25, 2013 Rise Set
Actual Time 6:26 AM EST 5:27 PM EST
Civil Twilight 5:57 AM EST 5:56 PM EST
Nautical Twilight 5:24 AM EST 6:29 PM EST
Astronomical Twilight 4:51 AM EST 7:02 PM EST
Moon 5:39 PM EST (2/25) 5:53 AM EST (2/25)
Length of Visible Light 11h 59m
Length of Day
11h 01m
Full, 100% of the Moon is Illuminated
Feb 25
Full
Feb 25
Full
Mar 4
Last Quarter
Mar 11
New
Mar 19
First Quarter

Hourly Weather History & Observations

Time (EST) Temp. Windchill Dew Point Humidity Pressure Visibility Wind Dir Wind Speed Gust Speed Precip Events Conditions
12:20 AM 28.4 °F 23.3 °F 26.6 °F 93% 29.89 in 2.5 mi NNW 4.6 mph - 0.01 in Snow Light Snow
12:42 AM 28.4 °F 23.3 °F 26.6 °F 93% 29.90 in 3.0 mi NNW 4.6 mph - 0.01 in Snow Light Snow
12:51 AM 28.9 °F 23.9 °F 27.0 °F 92% 29.90 in 4.0 mi NNW 4.6 mph - 0.01 in   Overcast
2:51 AM 28.9 °F 21.9 °F 26.1 °F 89% 29.94 in 10.0 mi NW 6.9 mph - N/A   Overcast
3:51 AM 28.9 °F 23.9 °F 26.1 °F 89% 29.95 in 10.0 mi NNW 4.6 mph - N/A   Overcast
4:41 AM 28.4 °F 22.2 °F 26.6 °F 93% 29.96 in 10.0 mi NW 5.8 mph - N/A   Overcast
4:51 AM 28.9 °F 22.8 °F 26.1 °F 89% 29.97 in 10.0 mi WNW 5.8 mph - N/A   Overcast
5:09 AM 28.4 °F 23.3 °F 26.6 °F 93% 29.97 in 10.0 mi WNW 4.6 mph - N/A   Overcast
6:51 AM 28.0 °F - 26.1 °F 92% 30.01 in 8.0 mi Calm Calm - N/A   Overcast
7:48 AM 30.2 °F - 26.6 °F 86% 30.03 in 9.0 mi Calm Calm - N/A   Overcast
7:51 AM 30.0 °F - 27.0 °F 88% 30.04 in 9.0 mi Calm Calm - N/A   Overcast
7:58 AM 28.4 °F - 26.6 °F 93% 30.03 in 10.0 mi Calm Calm - N/A   Overcast
8:14 AM 30.2 °F 26.7 °F 26.6 °F 86% 30.04 in 10.0 mi NW 3.5 mph - N/A   Overcast
8:51 AM 30.9 °F - 28.0 °F 89% 30.05 in 10.0 mi Calm Calm - N/A   Overcast
9:02 AM 30.2 °F - 28.4 °F 93% 30.06 in 10.0 mi Calm Calm - N/A   Mostly Cloudy
9:28 AM 33.8 °F 28.6 °F 26.6 °F 75% 30.06 in 10.0 mi NE 5.8 mph - N/A   Mostly Cloudy
9:51 AM 33.1 °F 28.7 °F 26.1 °F 75% 30.07 in 10.0 mi NNE 4.6 mph - N/A   Overcast
11:51 AM 35.1 °F - 27.0 °F 72% 30.09 in 10.0 mi Calm Calm - N/A   Overcast
12:51 PM 37.0 °F 34.5 °F 27.0 °F 67% 30.09 in 10.0 mi North 3.5 mph - N/A   Overcast
1:51 PM 37.0 °F - 28.0 °F 70% 30.11 in 10.0 mi Calm Calm - N/A   Overcast
2:06 PM 37.4 °F - 28.4 °F 70% 30.11 in 10.0 mi Calm Calm - N/A   Overcast
2:51 PM 37.0 °F - 28.9 °F 73% 30.13 in 10.0 mi Calm Calm - N/A   Overcast
3:49 PM 35.6 °F - 30.2 °F 81% 30.14 in 10.0 mi Calm Calm - N/A   Overcast
3:51 PM 36.0 °F - 30.9 °F 82% 30.15 in 10.0 mi Calm Calm - N/A   Overcast
4:51 PM 36.0 °F - 30.9 °F 82% 30.15 in 10.0 mi Calm Calm - N/A   Overcast
5:10 PM 35.6 °F - 30.2 °F 81% 30.15 in 10.0 mi Calm Calm - N/A   Overcast
5:51 PM 35.1 °F - 30.0 °F 82% 30.16 in 10.0 mi Calm Calm - N/A   Mostly Cloudy
6:51 PM 33.1 °F - 30.0 °F 89% 30.17 in 10.0 mi Calm Calm - N/A   Clear
7:51 PM 32.0 °F - 30.0 °F 92% 30.19 in 7.0 mi Calm Calm - N/A   Mostly Cloudy
8:51 PM 32.0 °F - 30.9 °F 96% 30.20 in 5.0 mi Calm Calm - N/A   Overcast
9:51 PM 30.9 °F - 28.9 °F 92% 30.20 in 5.0 mi Calm Calm - N/A   Overcast
10:51 PM 30.9 °F - 30.0 °F 96% 30.20 in 1.5 mi Calm Calm - N/A   Overcast
11:01 PM 30.2 °F - 28.4 °F 93% 30.20 in 0.5 mi Calm Calm - N/A Fog Light Freezing Fog
11:13 PM 30.2 °F - 28.4 °F 93% 30.20 in 2.0 mi Calm Calm - N/A   Overcast
11:25 PM 32.0 °F - 30.2 °F 93% 30.21 in 3.0 mi Calm Calm - N/A   Overcast
11:47 PM 30.2 °F - 28.4 °F 93% 30.22 in 1.5 mi Calm Calm - N/A   Overcast
11:51 PM 30.9 °F - 28.9 °F 92% 30.22 in 1.0 mi Calm Calm - N/A   Overcast